Indiana, PA

9:04 AM EST on December 08, 2019 (GMT -0500)
Indiana County-Stewart

Weather History for KIDI - July, 2019

Change the Weather History Date:

Tuesday, July 30, 2019

  Actual Average Record
Temperature  
Mean Temperature 73 °F -  
Max Temperature 80 °F 80 °F 91 °F (1975)
Min Temperature 66 °F 58 °F 44 °F (1956)
Cooling Degree Days 8    
Growing Degree Days 23 (Base 50)    
Moisture  
Dew Point 67 °F    
Average Humidity 81    
Maximum Humidity 100    
Minimum Humidity 58    
Precipitation  
Precipitation 0.00 in - - ()
Sea Level Pressure  
Sea Level Pressure 30.07 in    
Wind  
Wind Speed 4 mph (West)    
Max Wind Speed 24 mph    
Max Gust Speed 28 mph    
Visibility 10 miles    
Events      
Averages and records for this station are not official NWS values.
T = Trace of Precipitation, MM = Missing Value Source: NWS Daily Summary

Daily Weather History Graph

Daily Weather History Graph

Search for Another Location

Airport or City:

Astronomy

Jul. 30, 2019 Rise Set
Actual Time 6:11 AM EDT 8:33 PM EDT
Civil Twilight 5:40 AM EDT 9:04 PM EDT
Nautical Twilight 5:02 AM EDT 9:42 PM EDT
Astronomical Twilight 4:19 AM EDT 10:25 PM EDT
Moon 4:17 AM EDT (7/30) 7:37 PM EDT (7/30)
Length of Visible Light 15h 24m
Length of Day
14h 22m
Waning Crescent, 3% of the Moon is Illuminated
Jul 30
Waning Crescent
Jul 31
New
Aug 7
First Quarter
Aug 15
Full
Aug 23
Last Quarter

Hourly Weather History & Observations

Time (EDT) Temp. Heat Index Dew Point Humidity Pressure Visibility Wind Dir Wind Speed Gust Speed Precip Events Conditions
12:15 AM 69.8 °F - 66.2 °F 88% 30.05 in 10.0 mi Calm Calm - N/A   Clear
12:35 AM 69.8 °F - 66.2 °F 88% 30.05 in 10.0 mi Calm Calm - N/A   Clear
12:55 AM 68.0 °F - 66.2 °F 94% 30.05 in 10.0 mi Calm Calm - N/A   Clear
1:15 AM 69.8 °F - 66.2 °F 88% 30.05 in 10.0 mi Calm Calm - N/A   Clear
1:35 AM 69.8 °F - 66.2 °F 88% 30.04 in 10.0 mi Calm Calm - N/A   Clear
1:55 AM 69.8 °F - 66.2 °F 88% 30.04 in 10.0 mi Calm Calm - N/A   Clear
2:15 AM 68.0 °F - 66.2 °F 94% 30.04 in 10.0 mi Calm Calm - N/A   Clear
2:35 AM 68.0 °F - 66.2 °F 94% 30.04 in 10.0 mi Calm Calm - N/A   Clear
2:55 AM 68.0 °F - 66.2 °F 94% 30.03 in 10.0 mi Calm Calm - N/A   Clear
3:15 AM 68.0 °F - 66.2 °F 94% 30.03 in 10.0 mi Calm Calm - N/A   Clear
3:35 AM 68.0 °F - 66.2 °F 94% 30.03 in 10.0 mi Calm Calm - N/A   Clear
3:55 AM 68.0 °F - 66.2 °F 94% 30.03 in 10.0 mi Calm Calm - N/A   Clear
4:15 AM 68.0 °F - 66.2 °F 94% 30.04 in 10.0 mi Calm Calm - N/A   Clear
4:35 AM 66.2 °F - 66.2 °F 100% 30.04 in 10.0 mi Calm Calm - N/A   Partly Cloudy
4:55 AM 68.0 °F - 66.2 °F 94% 30.04 in 10.0 mi Calm Calm - N/A   Scattered Clouds
5:15 AM 66.2 °F - 64.4 °F 94% 30.05 in 10.0 mi Calm Calm - N/A   Scattered Clouds
5:35 AM 66.2 °F - 64.4 °F 94% 30.05 in 10.0 mi Calm Calm - N/A   Mostly Cloudy
5:55 AM 66.2 °F - 64.4 °F 94% 30.05 in 10.0 mi Calm Calm - N/A   Mostly Cloudy
6:15 AM 66.2 °F - 64.4 °F 94% 30.06 in 9.0 mi Calm Calm - N/A   Partly Cloudy
6:35 AM 66.2 °F - 64.4 °F 94% 30.06 in 10.0 mi Calm Calm - N/A   Clear
6:55 AM 68.0 °F - 66.2 °F 94% 30.06 in 10.0 mi Calm Calm - N/A   Clear
7:15 AM 69.8 °F - 66.2 °F 88% 30.07 in 10.0 mi Calm Calm - N/A   Clear
7:35 AM 69.8 °F - 66.2 °F 88% 30.07 in 10.0 mi West 3.5 mph - N/A   Clear
7:55 AM 71.6 °F - 68.0 °F 88% 30.08 in 10.0 mi WSW 5.8 mph - N/A   Clear
8:15 AM 73.4 °F - 68.0 °F 83% 30.08 in 9.0 mi WSW 6.9 mph - N/A   Clear
8:35 AM 73.4 °F - 68.0 °F 83% 30.08 in 9.0 mi WSW 8.1 mph - N/A   Clear
8:55 AM 75.2 °F - 68.0 °F 78% 30.09 in 9.0 mi SW 8.1 mph - N/A   Clear
9:15 AM 75.2 °F - 68.0 °F 78% 30.09 in 10.0 mi SW 6.9 mph - N/A   Clear
9:35 AM 77.0 °F - 68.0 °F 74% 30.09 in 10.0 mi SW 9.2 mph - N/A   Clear
9:55 AM 77.0 °F - 68.0 °F 74% 30.09 in 10.0 mi SW 8.1 mph - N/A   Clear
10:15 AM 78.8 °F - 68.0 °F 69% 30.09 in 10.0 mi West 10.4 mph - N/A   Clear
10:35 AM 78.8 °F - 68.0 °F 69% 30.09 in 10.0 mi WSW 9.2 mph - N/A   Scattered Clouds
10:55 AM 78.8 °F - 68.0 °F 69% 30.09 in 10.0 mi SW 11.5 mph - N/A   Mostly Cloudy
11:15 AM 80.6 °F 83.2 °F 68.0 °F 65% 30.10 in 10.0 mi WSW 9.2 mph - N/A   Mostly Cloudy
11:35 AM 78.8 °F - 68.0 °F 69% 30.09 in 10.0 mi West 10.4 mph - N/A   Mostly Cloudy
11:55 AM 80.6 °F 83.2 °F 68.0 °F 65% 30.09 in 10.0 mi WSW 9.2 mph 16.1 mph N/A   Mostly Cloudy
12:15 PM 77.0 °F - 69.8 °F 78% 30.09 in 4.0 mi WSW 10.4 mph - N/A   Haze
12:35 PM 78.8 °F - 69.8 °F 74% 30.08 in 10.0 mi SW 8.1 mph - N/A   Partly Cloudy
12:55 PM 78.8 °F - 69.8 °F 74% 30.09 in 10.0 mi WSW 10.4 mph - N/A   Scattered Clouds
1:15 PM 78.8 °F - 69.8 °F 74% 30.08 in 10.0 mi West 11.5 mph - N/A   Scattered Clouds
1:35 PM 78.8 °F - 68.0 °F 69% 30.08 in 10.0 mi West 17.3 mph 26.5 mph N/A   Mostly Cloudy
1:55 PM 78.8 °F - 64.4 °F 61% 30.07 in 10.0 mi West 24.2 mph - N/A   Scattered Clouds
2:15 PM 80.6 °F 82.3 °F 64.4 °F 58% 30.06 in 10.0 mi West 15.0 mph 27.6 mph N/A   Partly Cloudy
2:35 PM 80.6 °F 82.7 °F 66.2 °F 61% 30.05 in 10.0 mi West 15.0 mph 21.9 mph N/A   Partly Cloudy
2:55 PM 78.8 °F - 66.2 °F 65% 30.06 in 10.0 mi West 12.7 mph 20.7 mph N/A   Scattered Clouds
3:15 PM 80.6 °F 82.7 °F 66.2 °F 61% 30.06 in 10.0 mi WNW 8.1 mph 18.4 mph N/A   Scattered Clouds
3:35 PM 80.6 °F 82.7 °F 66.2 °F 61% 30.06 in 10.0 mi WSW 11.5 mph - N/A   Scattered Clouds
3:55 PM 80.6 °F 82.7 °F 66.2 °F 61% 30.06 in 10.0 mi WSW 8.1 mph 15.0 mph N/A   Mostly Cloudy
4:15 PM 80.6 °F 83.2 °F 68.0 °F 65% 30.05 in 10.0 mi WSW 8.1 mph - N/A   Overcast
4:35 PM 80.6 °F 82.7 °F 66.2 °F 61% 30.04 in 10.0 mi West 12.7 mph - N/A   Scattered Clouds
4:55 PM 80.6 °F 82.7 °F 66.2 °F 61% 30.03 in 10.0 mi West 11.5 mph 18.4 mph N/A   Partly Cloudy
5:15 PM 80.6 °F 83.2 °F 68.0 °F 65% 30.04 in 10.0 mi WNW 10.4 mph 16.1 mph N/A   Partly Cloudy
5:35 PM 80.6 °F 83.2 °F 68.0 °F 65% 30.04 in 10.0 mi WNW 8.1 mph - N/A   Mostly Cloudy
5:55 PM 80.6 °F 83.2 °F 68.0 °F 65% 30.05 in 10.0 mi WNW 6.9 mph - N/A   Overcast
6:15 PM 78.8 °F - 68.0 °F 69% 30.04 in 10.0 mi WNW 6.9 mph - N/A   Mostly Cloudy
6:35 PM 78.8 °F - 68.0 °F 69% 30.05 in 10.0 mi West 4.6 mph - N/A   Partly Cloudy
6:55 PM 77.0 °F - 68.0 °F 74% 30.06 in 10.0 mi WNW 4.6 mph - N/A   Partly Cloudy
7:15 PM 77.0 °F - 68.0 °F 74% 30.06 in 10.0 mi WNW 4.6 mph - N/A   Scattered Clouds
7:35 PM 77.0 °F - 68.0 °F 74% 30.07 in 9.0 mi WNW 5.8 mph - N/A   Partly Cloudy
7:55 PM 75.2 °F - 69.8 °F 83% 30.07 in 10.0 mi SW 3.5 mph - N/A   Scattered Clouds
8:15 PM 73.4 °F - 69.8 °F 88% 30.08 in 10.0 mi Calm Calm - N/A   Overcast
8:35 PM 73.4 °F - 69.8 °F 88% 30.09 in 10.0 mi NW 5.8 mph - N/A   Mostly Cloudy
8:55 PM 71.6 °F - 68.0 °F 88% 30.08 in 10.0 mi Variable 3.5 mph - N/A   Mostly Cloudy
9:15 PM 71.6 °F - 66.2 °F 83% 30.08 in 10.0 mi Calm Calm - N/A   Mostly Cloudy
9:35 PM 71.6 °F - 68.0 °F 88% 30.09 in 10.0 mi Calm Calm - N/A   Overcast
9:55 PM 71.6 °F - 68.0 °F 88% 30.10 in 10.0 mi North 6.9 mph - N/A   Mostly Cloudy
10:15 PM 69.8 °F - 68.0 °F 94% 30.10 in 10.0 mi NNW 4.6 mph - N/A   Partly Cloudy
10:35 PM 69.8 °F - 68.0 °F 94% 30.09 in 10.0 mi Calm Calm - N/A   Scattered Clouds
10:55 PM 69.8 °F - 68.0 °F 94% 30.08 in 10.0 mi SE 5.8 mph - N/A   Clear
11:15 PM 69.8 °F - 68.0 °F 94% 30.09 in 10.0 mi Calm Calm - N/A   Clear
11:35 PM 69.8 °F - 68.0 °F 94% 30.11 in 10.0 mi NW 8.1 mph - N/A   Mostly Cloudy
11:55 PM 68.0 °F - 66.2 °F 94% 30.11 in 6.0 mi Calm Calm - N/A   Overcast